Location: Unspecified
(54.1780°N, 0.0000°E)
Time: 23:04:48
(UTC+00:00)

Transit 2A - Pass Details

Date: 26 June 2019
Orbit: 600 x 959 km, 66.7° (Epoch: 13 October)

Event Time Altitude Azimuth Distance (km) Brightness Sun altitude
Rises 23:17:53 0° 202° (SSW) 3,625 - -11.9°
Reaches altitude 10° 23:20:29 10° 199° (SSW) 2,687 - -11.9°
Exits shadow 23:20:48 12° 198° (SSW) 2,576 8.2 -11.9°
Maximum altitude 23:26:40 57° 123° (ESE) 1,102 6.6 -12.1°
Drops below altitude 10° 23:32:40 10° 46° (NE) 2,606 9.3 -12.2°
Sets 23:35:09 0° 43° (NE) 3,510 10.1 -12.2°
